Find Starlink 4707

NORAD ID: 53721 Int'l Des: 2022-107 Owner: SPXS Country: US Constellation: starlink operational
LEOCIRCULAR

当前视图

正在加载3D地球...

About Starlink 4707

Starlink 4707 (NORAD 53721) is a starlink constellation satellite (v1.5) launched Sep 5, 2022 by SPXS of US. It operates in LEO, CIRCULAR orbit with a mass of 305.00 kg.

即将过境

Passes for default location (London). Set your location on the main map for personalized predictions.

高度历史

Loading altitude history...

两行轨道根数

1 53721U 22107X 26262.97097875 .00000686 00000-0 31454-4 0 9991
2 53721 53.1604 87.9590 0001216 92.2556 267.8586 15.34371178223937
Epoch: Sep 19, 2026 • Age: 14 hours

当前状态

高度 481.5 km
远地点 / 近地点 N/A
速度 7.62 km/s
星下点 -51.57°S, 141.83°E
发射日期 Sep 5, 2022
运行时间 4 years
类型 internet

技术详情

分类 Payload
质量 305.00 kg
干质量 290.00 kg
长度 0.20 m
跨度 9.00 m
形状 ? Box + pan
制造商 SPXS
平台类型 Starlink
阶段状态 In Orbit
所有者/国家 SPXS/US

Most Searched